High Desert Yearling Classic - South Hills

Station: South Hills 10 Miles - T Race

Distance: 10 Miles

Release: 15-Apr-2018 08:30

Weather Release:    Arrival:

Wind at Release:     Wind at Arrival:

Temp at Release: °    Temp at Arrival: °

Lofts: 99

Birds: 446

Clocked: 445

Multiple Groups! No training Monday 4-16 We are getting Snow at the loft!!!
Drops Pos Breeder Pigeon Name Color Sex Ent Arrival Speed To Win Eligible
1 Woodland Loft - NY 2242-IF17-EMC RC H 1 09:25:44.00 315.789 00:00:00 Yes
2 Baldwin & Tilson - NC 7179-AU17-TENT BBWF H 1 09:29:10.00 297.465 00:03:26 Yes
3 Racing Pigeon Mall - WA 0732-AU17-RPM BLK H 1 09:31:36.00 285.714 00:05:52 Yes
4 Carlton Kroese-Crazy Al - CO 1285-AU17-HOHC BC H 1 09:31:40.00 285.405 00:05:56 Yes
4 Aimhigh Loft - CA 0089-AU17-FMT AIM-0089 BC H 1 09:31:40.00 285.405 00:05:56 Yes
6 Stella Loft - TX 44762-AU17-AA MLY H 1 09:31:44.00 285.097 00:06:00 Yes
7 Pelican Loft - ID 72741-AU17-ARPU BB H 1 09:31:45.00 285.020 00:06:01 Yes
8 Mc Laughlin Lofts - MA 1197-AU17-MCLO BC H 1 09:31:48.00 284.790 00:06:04 Yes
9 Marian Taloi - OR 0495-AU17-OTC BB H 1 09:31:52.00 284.483 00:06:08 Yes
10 High Plains Drifter Loft - CO 0026-AU17-HPDL BBWF H 1 09:31:54.00 284.330 00:06:10 Yes
11 Ed Kehl - UT 0394-AU17-WFA SLT H 1 09:32:01.00 283.795 00:06:17 Yes
12 Arendonk West - CA 26803-AU17-AA BB H 1 09:32:07.00 283.338 00:06:23 Yes
13 Almosta Loft - WA 47996-AU17-AA BB H 1 09:32:08.00 283.262 00:06:24 Yes
14 Frank Locante - WI 17026-AU17-FRLO DC H 1 09:32:14.00 282.807 00:06:30 Yes
15 Roberts Family Loft - MA 0185-IF17-NWC BB H 1 09:32:15.00 282.731 00:06:31 Yes
16 Mc Laughlin Lofts - MA 1230-AU17-MCLO BC H 2 09:32:20.00 282.353 00:06:36 Yes
17 B S Syndicate - IL 0014-AU17-BEKO BBSP H 1 09:32:21.00 282.277 00:06:37 Yes
18 Sextons Loft - IA 31764-AU17-AA BC H 1 09:32:22.00 282.202 00:06:38 Yes
19 Ganus Family Loft - IN 0933-AU17-GFL BB H 1 09:32:24.00 282.051 00:06:40 Yes
20 Rebel Wings - UT 0376-AU17-DWI BB H 1 09:32:25.00 281.976 00:06:41 Yes
21 Joe Zarachowicz - MD 2267-IF17-CCC BBSP H 1 09:32:28.00 281.750 00:06:44 Yes
22 Carlton Kroese-Crazy Al - CO 5179-AU17-CRAZ BB H 2 09:32:31.00 281.525 00:06:47 Yes
23 Sunshine Loft - BC 1229-CU17-MTNP BB H 1 09:32:47.00 280.329 00:07:03 Yes
24 Hammon And Friends - AZ 0415-AU17-DWI BB H 1 09:32:49.00 280.180 00:07:05 Yes
25 Huan Qiu Zhang - NC 1730-IF17-JNC BB H 1 09:32:51.00 280.032 00:07:07 Yes
26 Jones Boys - UT 1188-AU17-SLI BC H 1 09:33:02.00 279.217 00:07:18 Yes
27 Woodland Loft - NY 2243-IF17-EMC RC H 2 09:33:10.00 278.628 00:07:26 Yes
28 Rory Smith - UT 7382-AU17-CDR BB H 1 09:33:37.00 276.657 00:07:53 Yes
29 Bert Bruno - UT 79326-AU17-ARPU RC C 1 09:34:04.00 274.714 00:08:20 Yes
30 Eagle Ridge Lofts - WY 17023-AU17-EAGL DC H 1 09:34:33.00 272.657 00:08:49 Yes
31 Jones Boys - UT 1167-AU17-SLI BC H 2 09:34:56.00 271.047 00:09:12 Yes
32 Fly & Criddle - ID 6655-AU17-FOYS 554/1668 MLY C 1 09:35:03.00 270.561 00:09:19 Yes
33 P N A Loft - CA 0283-AU17-SDM Bold Faith Clone BB H 1 09:35:11.00 270.008 00:09:27 Yes
34 Hi-Cal Connection - CA 0754-AU17-HICA BC H 1 09:36:09.00 266.062 00:10:25 Yes
35 Stella Loft - TX 10999-AU17-AA BB H 2 09:36:13.00 265.794 00:10:29 Yes
36 Dave Naylor - BC 1437-CU17-MTNP BC H 1 09:36:14.00 265.727 00:10:30 Yes
37 B S Syndicate - IL 0002-AU17-BEKO BB H 2 09:36:17.00 265.527 00:10:33 Yes
38 D & L Lofts - BC 1106-CU17-MTNP BB H 1 09:36:19.00 265.393 00:10:35 Yes
39 Thunder Birds/Rodriguez Breeding Loft - TX 17845-AU17-WIN Deadpool BB H 1 09:36:21.00 265.260 00:10:37 Yes
40 Michael Kelly - CA 3980-AU17-VK BB H 1 09:36:24.00 265.060 00:10:40 Yes
41 Marian Taloi - OR 0247-AU17-OTC DCGZ H 2 09:36:26.00 264.927 00:10:42 Yes
42 P N W Challenge - ID 7096-AU17-PNWC "1311-1717" BB H 1 09:36:27.00 264.861 00:10:43 Yes
43 Bert Bruno - UT 36365-AU17-JEDD BC H 2 09:36:28.00 264.794 00:10:44 Yes
44 Mike Beam - KS 8568-AU17-VK BC H 1 09:36:32.00 264.529 00:10:48 Yes
45 Jose Rangel - UT 43347-AU17-AA BB H 1 09:36:36.00 264.264 00:10:52 Yes
46 Sam Haslem - UT 7805-AU17-CDR BB H 1 09:36:37.00 264.198 00:10:53 Yes
47 A-Lin Loft - ME 0914-AU17-NEC BB H 1 09:36:39.00 264.066 00:10:55 Yes
47 Hammon And Friends - AZ 0595-AU17-DWI BB H 2 09:36:39.00 264.066 00:10:55 Yes
49 Team Elite - IL 0585-AU17-ELIT DCGZ H 1 09:36:41.00 263.934 00:10:57 Yes
49 Morfin Loft - ID 1119-AU17-IDA BBWF H 1 09:36:41.00 263.934 00:10:57 Yes
51 Haack Loft - CA 1370-AU17-GHC BB H 1 09:36:47.00 263.539 00:11:03 Yes
52 Jimmy Zheng Loft - MS 0652-AU17-JZ BB H 1 09:36:56.00 262.948 00:11:12 Yes
53 Silver Dollar Loft - CO 0079-AU17-SD BB H 1 09:36:57.00 262.883 00:11:13 Yes
54 Ed Kehl - UT 0384-AU17-WFA BBWF H 2 09:36:59.00 262.752 00:11:15 Yes
55 Team Elite - IL 0590-AU17-ELIT BCWF H 2 09:37:01.00 262.621 00:11:17 Yes
56 Silver Dollar Loft - CO 0093-AU17-SD BBWF H 2 09:37:02.00 262.556 00:11:18 Yes
57 Papas Loft - ID 20335-AU17-ARPU BC H 1 09:37:04.00 262.425 00:11:20 Yes
58 Mario Rodriguez - AZ 15911-AU17-ARPU BB H 1 09:37:11.00 261.970 00:11:27 Yes
59 Dream Team - VT 0830-AU17-JCZL BB H 1 09:37:12.00 261.905 00:11:28 Yes
60 Ordonez Loft - CA 0432-AU17-FMT BBPD H 1 09:37:14.00 261.775 00:11:30 Yes
61 Rich Fox Loft - PA 0857-IF17-LVC BB H 1 09:37:16.00 261.645 00:11:32 Yes
62 Fly & Criddle - ID 6601-AU17-FOYS BC H 2 09:37:19.00 261.451 00:11:35 Yes
63 Mc Laughlin Lofts - MA 1199-AU17-MCLO BC H 3 09:37:20.00 261.386 00:11:36 Yes
64 Marian Taloi - OR 0498-AU17-OTC RC H 3 09:37:22.00 261.257 00:11:38 Yes
65 Jones Boys - UT 1181-AU17-SLI BB H 3 09:37:23.00 261.192 00:11:39 Yes
65 Sam Haslem - UT 7946-AU17-CDR BB H 2 09:37:23.00 261.192 00:11:39 Yes
67 D & L Lofts - BC 1113-CU17-MTNP BB H 2 09:37:25.00 261.063 00:11:41 Yes
68 Eagle Ridge Lofts - WY 17017-AU17-EAGL DUN H 2 09:37:28.00 260.870 00:11:44 Yes
69 Woodland Loft - NY 2261-IF17-EMC BB H 3 09:37:30.00 260.741 00:11:46 Yes
70 Ganus Family Loft - IN 0479-AU17-GFL BC H 2 09:37:31.00 260.676 00:11:47 Yes
71 Silver Dollar Loft - CO 0097-AU17-SILD BB H 3 09:37:36.00 260.355 00:11:52 Yes
72 Ganus Family Loft - IN 0939-AU17-GFL BC H 3 09:37:37.00 260.291 00:11:53 Yes
73 Racing Pigeon Mall - WA 0728-AU17-RPM BB H 2 09:37:38.00 260.227 00:11:54 Yes
74 Lucky Luke - ID 29392-AU17-FOYS BB H 1 09:37:41.00 260.034 00:11:57 Yes
75 Warbird Loft - CO 7352-AU17-FH 7xevo BB H 1 09:37:45.00 259.779 00:12:01 Yes
75 Jones Boys - UT 1154-AU17-SLI SLWF H 4 09:37:45.00 259.779 00:12:01 Yes
77 Rangel/Flores/Fregos - UT 0170-AU17-WFA DCWF H 1 09:37:49.00 259.523 00:12:05 Yes
77 Warbird Loft - CO 7339-AU17-FH Ztxprl DCSP H 2 09:37:49.00 259.523 00:12:05 Yes
79 Frank Locante - WI 17022-AU17-FRLO DCSP H 2 09:37:53.00 259.268 00:12:09 Yes
80 Lucky Luke - ID 29397-AU17-FOYS BC H 2 09:37:55.00 259.141 00:12:11 Yes
81 Ordonez Loft - CA 0424-AU17-FMT BBPD H 2 09:37:56.00 259.078 00:12:12 Yes
82 Mario Rodriguez - AZ 15909-AU17-ARPU BB H 2 09:37:59.00 258.887 00:12:15 Yes
82 F & D Lofts - AB 17251-AU17-FD BB H 1 09:37:59.00 258.887 00:12:15 Yes
84 Danny Lum - HI 7754-AU17-HIC BB H 1 09:38:02.00 258.697 00:12:18 Yes
85 Aimhigh Loft - CA 0021-AU17-FMT AIM-0021 BB H 2 09:38:11.00 258.128 00:12:27 Yes
86 E M C Syndicate - LA 7252-AU17-CENL BBWF H 1 09:38:13.00 258.001 00:12:29 Yes
87 Marian Taloi - OR 0223-AU17-OTC BCSP H 4 09:38:17.00 257.750 00:12:33 Yes
88 Jimmy Zheng Loft - MS 0659-AU17-JZ BB H 2 09:38:24.00 257.310 00:12:40 Yes
89 Slick Hills Loft - UT 46137-AU17-ARPU BC H 1 09:38:26.00 257.185 00:12:42 Yes
90 Flyhome Loft - CA 26351-AU17-ARPU BB H 1 09:38:30.00 256.934 00:12:46 Yes
91 Silver Dollar Loft - CO 0085-AU17-SD BBSP H 4 09:38:39.00 256.373 00:12:55 Yes
92 Flyhome Loft - CA 26380-AU17-ARPU BC H 2 09:38:42.00 256.186 00:12:58 Yes
93 Best Loft - IL 1621-AU17-CHI BBWF H 1 09:38:47.00 255.876 00:13:03 Yes
94 House Of Paine - CA 0271-AU17-GSF MLY H 1 09:38:53.00 255.504 00:13:09 Yes
95 Stella Loft - TX 11000-AU17-AA DC H 3 09:39:02.00 254.949 00:13:18 Yes
95 Warbird Loft - CO 7347-AU17-FH 2wxkaniii BB H 3 09:39:02.00 254.949 00:13:18 Yes
97 Utaz Boys/ Jones - UT 0806-AU17-SLI IND H 1 09:39:12.00 254.335 00:13:28 Yes
98 Kwan Loft - CA 6226-AU17-HP RGRZ H 1 09:39:15.00 254.152 00:13:31 Yes
99 Bert Bruno - UT 36380-AU17-JEDD BLK H 3 09:39:21.00 253.785 00:13:37 Yes
100 Venn Family Loft - WY 87131-AU17-ARPU BBSP H 1 09:39:22.00 253.724 00:13:38 Yes

There are 527 bird records

Note: These Race Results are unofficial and subject to change until verified by the Race Committee and declared final.

Click for forecast!